Torna al catalogo

IRIDIUM 177

AttivoComunicazioniPO
NORAD 56727·PAYLOAD·🇺🇸 United States

Lanciato May 20, 2023 da Vandenberg Space Force Base

Loading…

Prossimi Passaggi (prossime 24 ore)

TLE

AggiornatoSource: CelesTrak SupGP

Epoca: Sep 14, 2026, 21:06 UTC

1 56727C 23068T   26257.87951389  .00001971  00000+0  27942-3 0  2579
2 56727  86.1918 286.2360 0002649  93.6008   5.5403 14.77159991    17

Traccia IRIDIUM 177 in tempo reale con AllMySat

Download on the App Store